When you browse on this site, cookies collect data to enhance your experience and personalize the content and advertising you see.
Visit our Privacy Policy to learn more. By continuing to use the site, you agree to this use of cookies and data.
  • Em Portugal
  • Lista de países
  • Para 7 dias
  • Temperatura da água
  • Mapas de satélite
  • Mapa do tempo
  • Widgets de tempo
  • user-avatar
    Iniciar Sessão

    Previsão horária em Kranevo

    Hoje, 21 Janeiro, Segunda-feira

    Tempo Temperatura Precipitação Vento Pressão Humidade
    00:00 +7°C° 0 mm 3 m/s 756 mmHg 95%
    01:00 +5°C° 0 mm 3 m/s 756 mmHg 95%
    02:00 +5°C° 0 mm 4 m/s 756 mmHg 94%
    03:00 +4°C° 0 mm 4 m/s 756 mmHg 93%
    04:00 +2°C° 0 mm 5 m/s 756 mmHg 91%
    05:00 +2°C° 0 mm 6 m/s 756 mmHg 89%
    06:00 +1°C° 0 mm 6 m/s 757 mmHg 88%
    07:00 +1°C° 0 mm 6 m/s 757 mmHg 87%
    08:00 -1°C° 0 mm 7 m/s 758 mmHg 86%
    09:00 0°C° 0 mm 7 m/s 758 mmHg 83%
    10:00 +1°C° 0 mm 6 m/s 759 mmHg 81%
    11:00 +2°C° 0 mm 6 m/s 759 mmHg 78%
    12:00 +2°C° 0 mm 6 m/s 759 mmHg 75%
    13:00 +3°C° 0 mm 6 m/s 759 mmHg 72%
    14:00 +3°C° 0 mm 5 m/s 760 mmHg 68%
    15:00 +2°C° 0 mm 5 m/s 760 mmHg 71%
    16:00 +3°C° 0 mm 4 m/s 760 mmHg 73%
    17:00 +1°C° 0 mm 4 m/s 760 mmHg 75%
    18:00 0°C° 0 mm 4 m/s 761 mmHg 78%
    19:00 0°C° 0 mm 4 m/s 761 mmHg 81%
    20:00 0°C° 0 mm 3 m/s 761 mmHg 84%
    21:00 0°C° 0 mm 3 m/s 761 mmHg 84%
    22:00 -1°C° 0 mm 3 m/s 761 mmHg 84%
    23:00 -1°C° 0 mm 3 m/s 762 mmHg 84%

    Amanhã, 22 Janeiro, Terça-feira

    Tempo Temperatura Precipitação Vento Pressão Humidade
    00:00 -1°C° 0 mm 3 m/s 762 mmHg 85%
    01:00 -1°C° 0 mm 2 m/s 761 mmHg 85%
    02:00 -1°C° 0 mm 2 m/s 761 mmHg 86%
    03:00 -1°C° 0 mm 2 m/s 761 mmHg 87%
    04:00 -1°C° 0 mm 2 m/s 761 mmHg 88%
    05:00 -1°C° 0 mm 2 m/s 761 mmHg 89%
    06:00 +1°C° 0 mm 2 m/s 761 mmHg 89%
    07:00 +1°C° 0 mm 2 m/s 760 mmHg 89%
    08:00 +1°C° 0 mm 2 m/s 760 mmHg 88%
    09:00 +1°C° 0 mm 3 m/s 760 mmHg 85%
    10:00 +2°C° 0 mm 3 m/s 760 mmHg 82%
    11:00 +3°C° 0 mm 4 m/s 760 mmHg 79%
    12:00 +3°C° 0.2 mm 4 m/s 759 mmHg 81%
    13:00 +3°C° 0.2 mm 4 m/s 759 mmHg 82%
    14:00 +2°C° 0.2 mm 5 m/s 758 mmHg 84%
    15:00 +2°C° 0 mm 5 m/s 757 mmHg 86%
    16:00 +2°C° 0 mm 5 m/s 757 mmHg 88%
    17:00 +2°C° 0 mm 5 m/s 756 mmHg 90%
    18:00 +2°C° 0.1 mm 5 m/s 756 mmHg 91%
    19:00 +3°C° 0.1 mm 6 m/s 756 mmHg 92%
    20:00 +3°C° 0.1 mm 6 m/s 755 mmHg 93%
    21:00 +3°C° 0 mm 6 m/s 755 mmHg 93%
    22:00 +4°C° 0 mm 6 m/s 754 mmHg 93%
    23:00 +4°C° 0 mm 6 m/s 754 mmHg 93%

    Depois de amanhã, 23 Janeiro, Quarta-feira

    Tempo Temperatura Precipitação Vento Pressão Humidade
    00:00 +4°C° 0 mm 6 m/s 753 mmHg 94%
    01:00 +4°C° 0 mm 6 m/s 753 mmHg 95%
    02:00 +4°C° 0 mm 6 m/s 752 mmHg 95%
    03:00 +5°C° 0.6 mm 6 m/s 751 mmHg 96%
    04:00 +5°C° 0.6 mm 6 m/s 750 mmHg 97%
    05:00 +5°C° 0.6 mm 6 m/s 750 mmHg 97%
    06:00 +5°C° 2.1 mm 7 m/s 749 mmHg 96%
    07:00 +6°C° 2.1 mm 7 m/s 749 mmHg 94%
    08:00 +6°C° 2.1 mm 7 m/s 749 mmHg 93%
    09:00 +7°C° 0 mm 8 m/s 749 mmHg 90%
    10:00 +9°C° 0 mm 8 m/s 749 mmHg 87%
    11:00 +9°C° 0 mm 8 m/s 749 mmHg 84%
    12:00 +10°C° 0 mm 8 m/s 748 mmHg 80%
    13:00 +11°C° 0 mm 8 m/s 748 mmHg 76%
    14:00 +12°C° 0 mm 7 m/s 748 mmHg 72%
    15:00 +11°C° 0 mm 6 m/s 748 mmHg 75%
    16:00 +10°C° 0 mm 6 m/s 748 mmHg 78%
    17:00 +9°C° 0 mm 5 m/s 748 mmHg 82%
    18:00 +9°C° 0 mm 5 m/s 748 mmHg 84%
    19:00 +8°C° 0 mm 5 m/s 748 mmHg 86%
    20:00 +8°C° 0 mm 5 m/s 748 mmHg 89%
    21:00 +8°C° 0 mm 5 m/s 749 mmHg 89%
    22:00 +8°C° 0 mm 5 m/s 749 mmHg 90%
    23:00 +8°C° 0 mm 5 m/s 749 mmHg 91%

    24 Janeiro, Quinta-feira

    Tempo Temperatura Precipitação Vento Pressão Humidade
    00:00 +8°C° 0 mm 5 m/s 749 mmHg 92%
    01:00 +7°C° 0 mm 5 m/s 749 mmHg 93%
    02:00 +7°C° 0 mm 5 m/s 749 mmHg 94%
    03:00 +7°C° 0.7 mm 5 m/s 748 mmHg 95%
    04:00 +7°C° 0.7 mm 5 m/s 748 mmHg 96%
    05:00 +7°C° 0.7 mm 5 m/s 748 mmHg 97%
    06:00 +7°C° 0.3 mm 5 m/s 748 mmHg 97%
    07:00 +7°C° 0.3 mm 5 m/s 748 mmHg 96%
    08:00 +7°C° 0.3 mm 5 m/s 748 mmHg 95%
    09:00 +8°C° 0 mm 5 m/s 748 mmHg 90%
    10:00 +9°C° 0 mm 5 m/s 748 mmHg 86%
    11:00 +9°C° 0 mm 5 m/s 748 mmHg 81%
    12:00 +9°C° 0 mm 5 m/s 748 mmHg 79%
    13:00 +9°C° 0 mm 6 m/s 747 mmHg 77%
    14:00 +10°C° 0 mm 6 m/s 747 mmHg 76%
    15:00 +9°C° 0 mm 7 m/s 747 mmHg 81%
    16:00 +8°C° 0 mm 7 m/s 747 mmHg 86%
    17:00 +6°C° 0 mm 8 m/s 747 mmHg 92%
    18:00 +6°C° 0 mm 8 m/s 747 mmHg 91%
    19:00 +5°C° 0 mm 8 m/s 748 mmHg 91%
    20:00 +5°C° 0 mm 9 m/s 748 mmHg 91%
    21:00 +5°C° 0.1 mm 9 m/s 748 mmHg 91%
    22:00 +5°C° 0.1 mm 10 m/s 748 mmHg 90%
    23:00 +3°C° 0.1 mm 10 m/s 748 mmHg 90%

    25 Janeiro, Sexta-feira

    Tempo Temperatura Precipitação Vento Pressão Humidade
    00:00 +3°C° 0.1 mm 10 m/s 748 mmHg 90%
    01:00 +3°C° 0.1 mm 10 m/s 748 mmHg 90%
    02:00 +3°C° 0.1 mm 10 m/s 748 mmHg 91%
    03:00 +3°C° 0.1 mm 10 m/s 749 mmHg 91%
    04:00 +2°C° 0.1 mm 9 m/s 749 mmHg 91%
    05:00 +2°C° 0.1 mm 9 m/s 749 mmHg 91%
    06:00 +2°C° 0.6 mm 9 m/s 749 mmHg 92%
    07:00 +2°C° 0.6 mm 8 m/s 749 mmHg 92%
    08:00 +1°C° 0.6 mm 8 m/s 750 mmHg 92%
    09:00 +2°C° 0.2 mm 8 m/s 750 mmHg 92%
    10:00 +2°C° 0.2 mm 8 m/s 750 mmHg 93%
    11:00 +3°C° 0.2 mm 7 m/s 751 mmHg 93%
    12:00 +3°C° 0 mm 7 m/s 750 mmHg 93%
    13:00 +3°C° 0 mm 7 m/s 750 mmHg 93%
    14:00 +3°C° 0 mm 7 m/s 750 mmHg 93%
    15:00 +3°C° 0 mm 7 m/s 750 mmHg 93%
    16:00 +2°C° 0 mm 7 m/s 750 mmHg 92%
    17:00 +1°C° 0 mm 8 m/s 750 mmHg 92%
    18:00 +1°C° 0.1 mm 8 m/s 750 mmHg 92%
    19:00 +2°C° 0.1 mm 8 m/s 750 mmHg 93%
    20:00 +2°C° 0.1 mm 8 m/s 750 mmHg 94%
    21:00 +3°C° 0.5 mm 7 m/s 750 mmHg 95%
    22:00 +3°C° 0.5 mm 7 m/s 750 mmHg 96%
    23:00 +4°C° 0.5 mm 7 m/s 750 mmHg 97%

    26 Janeiro, Sábado

    Tempo Temperatura Precipitação Vento Pressão Humidade
    00:00 +4°C° 0.4 mm 7 m/s 750 mmHg 97%
    01:00 +4°C° 0.4 mm 7 m/s 749 mmHg 97%
    02:00 +4°C° 0.4 mm 8 m/s 749 mmHg 96%
    03:00 +4°C° 0.7 mm 8 m/s 749 mmHg 96%
    04:00 +4°C° 0.7 mm 8 m/s 748 mmHg 96%
    05:00 +4°C° 0.7 mm 7 m/s 748 mmHg 96%
    06:00 +4°C° 0.5 mm 8 m/s 748 mmHg 95%
    07:00 +2°C° 0.5 mm 8 m/s 749 mmHg 94%
    08:00 +2°C° 0.5 mm 8 m/s 749 mmHg 94%
    09:00 +2°C° 0.4 mm 9 m/s 749 mmHg 92%
    10:00 +1°C° 0.4 mm 9 m/s 750 mmHg 91%
    11:00 +1°C° 0.4 mm 10 m/s 750 mmHg 90%
    12:00 0°C° 0.3 mm 10 m/s 750 mmHg 89%
    13:00 -2°C° 0.3 mm 10 m/s 750 mmHg 89%
    14:00 -2°C° 0.3 mm 10 m/s 750 mmHg 88%
    15:00 -3°C° 0.1 mm 9 m/s 750 mmHg 89%
    16:00 -2°C° 0.1 mm 8 m/s 751 mmHg 89%
    17:00 -4°C° 0.1 mm 8 m/s 751 mmHg 89%
    18:00 -4°C° 0.1 mm 8 m/s 751 mmHg 89%
    19:00 -4°C° 0.1 mm 8 m/s 752 mmHg 89%
    20:00 -4°C° 0.1 mm 8 m/s 752 mmHg 89%
    21:00 -5°C° 0 mm 8 m/s 752 mmHg 89%
    22:00 -5°C° 0 mm 8 m/s 753 mmHg 89%
    23:00 -4°C° 0 mm 7 m/s 753 mmHg 89%
    Mostrar mais